DW1980 Weather Reports


Display with metric or nautical units.
time (UTC)temp
F
wind
direction
speed
MPH
gust
MPH
rain 1hr
in
rain 24hr
in
rain mn
in
humidity
%
barometer
mb
20260901094850 69 223 0.0 0.0 0.00 0.97 0.97 95 1016.7
20260901094618 68 223 0.0 0.0 0.00 0.97 0.97 94 1016.2
20260901094552 68 0 0.0 0.0 0.00 0.97 0.97 94 1016.4
20260901094339 69 223 0.0 0.0 0.00 0.97 0.97 94 1016.6
20260901093850 69 223 0.0 0.0 0.00 0.97 0.97 94 1016.7
20260901093341 69 223 0.0 1.0 0.00 0.97 0.97 94 1016.7
20260901093107 68 223 0.0 1.0 0.00 0.97 0.97 94 1016.2
20260901093058 68 0 0.0 1.0 0.00 0.97 0.97 94 1016.4
20260901092848 69 223 0.0 1.0 0.00 0.97 0.97 95 1016.7
20260901092338 69 355 0.0 1.0 0.00 0.97 0.97 94 1016.7
20260901091848 69 355 0.0 1.0 0.00 0.97 0.97 94 1016.7
20260901091615 68 355 0.0 1.0 0.00 0.97 0.97 94 1016.2
20260901091556 68 0 0.0 1.0 0.00 0.97 0.97 94 1016.3
20260901091338 69 355 0.0 1.0 0.00 0.97 0.97 94 1016.8
20260901090850 69 355 0.0 1.0 0.01 0.97 0.97 94 1016.8
20260901090402 69 355 0.0 1.0 0.01 0.97 0.97 94 1016.8
20260901090106 68 355 0.0 1.0 0.01 0.97 0.97 94 1016.3
20260901090053 68 0 0.0 1.0 0.01 0.97 0.97 94 1016.4
20260901085848 69 355 0.0 1.0 0.01 0.97 0.97 94 1016.7
20260901085340 69 355 0.0 0.0 0.01 0.97 0.97 94 1016.8
20260901084849 69 355 0.0 0.0 0.01 0.97 0.97 94 1016.8
20260901084618 68 355 0.0 0.0 0.01 0.97 0.97 94 1016.4
20260901084557 68 0 0.0 0.0 0.01 0.97 0.97 94 1016.6
20260901084339 69 355 0.0 0.0 0.01 0.97 0.97 94 1016.9
20260901083910 69 355 0.0 0.0 0.01 0.97 0.97 94 1016.9
20260901083341 69 355 0.0 1.0 0.01 0.97 0.97 94 1017.0
20260901083106 68 355 0.0 1.0 0.01 0.97 0.97 94 1016.5
20260901083046 68 0 0.0 1.0 0.01 0.97 0.97 94 1016.6
20260901082848 69 355 0.0 1.0 0.01 0.97 0.97 94 1017.0
20260901082336 69 355 0.0 1.0 0.01 0.97 0.97 94 1017.0
20260901081848 69 355 0.0 0.0 0.01 0.97 0.97 94 1017.1
20260901081617 68 355 0.0 0.0 0.01 0.97 0.97 94 1016.7
20260901081554 68 0 0.0 0.0 0.01 0.97 0.97 94 1016.8
20260901081341 69 355 0.0 0.0 0.01 0.97 0.97 94 1017.1
20260901080850 69 355 0.0 1.0 0.00 0.96 0.96 94 1017.2
20260901080340 69 355 0.0 1.0 0.00 0.96 0.96 94 1017.3
20260901080123 68 355 0.0 1.0 0.00 0.96 0.96 94 1016.8
20260901080056 68 0 0.0 0.0 0.00 0.96 0.96 94 1017.0
20260901075847 69 355 0.0 0.0 0.00 0.96 0.96 94 1017.3
20260901075337 69 355 0.0 0.0 0.00 0.96 0.96 94 1017.3
20260901074848 69 355 0.0 0.0 0.00 0.96 0.96 94 1017.3
20260901074613 68 355 0.0 0.0 0.00 0.96 0.96 94 1016.9
20260901074557 68 0 0.0 0.0 0.00 0.96 0.96 94 1017.0
20260901074338 69 355 0.0 0.0 0.00 0.96 0.96 94 1017.4
20260901073850 69 355 0.0 1.0 0.00 0.96 0.96 94 1017.4
20260901073341 69 355 0.0 2.0 0.00 0.96 0.96 94 1017.4
20260901073108 68 355 0.0 2.0 0.00 0.96 0.96 94 1016.9
20260901073045 68 0 0.0 2.0 0.00 0.96 0.96 94 1017.0
20260901072848 69 355 1.0 2.0 0.00 0.96 0.96 94 1017.3
20260901072338 69 249 0.0 1.0 0.00 0.96 0.96 94 1017.3
20260901071848 69 249 0.0 1.0 0.01 0.96 0.96 94 1017.3
20260901071619 68 249 0.0 1.0 0.02 0.96 0.96 94 1016.8
20260901071554 68 0 0.0 0.0 0.02 0.96 0.96 94 1016.8
20260901071338 69 249 0.0 0.0 0.03 0.96 0.96 94 1017.3
20260901070850 69 249 0.0 0.0 0.05 0.96 0.96 94 1017.4
20260901070340 69 249 0.0 0.0 0.08 0.96 0.96 94 1017.4
20260901070112 68 249 0.0 0.0 0.11 0.96 0.96 94 1016.9
20260901070045 68 0 0.0 0.0 0.11 0.96 0.96 94 1017.1
20260901065848 69 249 0.0 0.0 0.12 0.96 0.96 94 1017.4
20260901065338 69 249 0.0 0.0 0.20 0.96 0.96 94 1017.5
20260901064847 69 249 0.0 1.0 0.26 0.96 0.96 94 1017.5
20260901064616 68 249 0.0 1.0 0.28 0.96 0.96 94 1017.0
20260901064552 68 0 0.0 3.0 0.29 0.96 0.96 93 1017.1
20260901064337 69 249 0.0 3.0 0.33 0.96 0.96 94 1017.4
20260901063846 69 249 0.0 3.0 0.40 0.96 0.96 94 1017.4
20260901063358 69 201 0.0 1.0 0.46 0.96 0.96 94 1017.4
20260901063111 69 201 0.0 1.0 0.47 0.96 0.96 94 1017.0
20260901063109 69 0 0.0 1.0 0.47 0.96 0.96 93 1017.1
20260901062845 69 202 0.0 1.0 0.48 0.96 0.96 94 1017.5
20260901062357 69 202 0.0 1.0 0.53 0.96 0.96 94 1017.7
20260901061845 69 202 0.0 1.0 0.58 0.95 0.95 94 1017.7
20260901061629 69 202 0.0 1.0 0.57 0.94 0.94 94 1017.2
20260901061550 69 0 0.0 1.0 0.58 0.94 0.94 93 1017.4
20260901061337 69 202 0.0 1.0 0.57 0.93 0.93 94 1017.7
20260901060847 69 202 0.0 1.0 0.56 0.90 0.90 94 1017.8
20260901060343 69 203 0.0 1.0 0.55 0.87 0.87 93 1017.9
20260901060103 69 207 0.0 1.0 0.55 0.85 0.85 93 1017.4
20260901060047 69 0 0.0 1.0 0.55 0.85 0.85 93 1017.5
20260901055850 69 225 0.0 1.0 0.55 0.83 0.83 93 1017.9
20260901055401 69 227 0.0 1.0 0.50 0.75 0.75 93 1017.9
20260901054850 69 182 0.0 1.0 0.48 0.69 0.69 93 1017.9
20260901054617 69 182 0.0 1.0 0.48 0.67 0.67 93 1017.3
20260901054554 69 0 0.0 1.0 0.47 0.66 0.66 93 1017.5
20260901054341 69 183 0.0 1.0 0.43 0.61 0.61 93 1017.9
20260901053849 69 183 0.0 1.0 0.40 0.55 0.55 93 1018.0
20260901053340 69 204 0.0 1.0 0.37 0.49 0.49 93 1018.0
20260901053122 69 204 0.0 1.0 0.40 0.49 0.49 93 1017.5
20260901053056 69 0 0.0 1.0 0.39 0.48 0.48 93 1017.7
20260901052848 69 204 0.0 1.0 0.38 0.47 0.47 93 1018.0
20260901052358 69 216 0.0 1.0 0.37 0.42 0.42 93 1018.1
20260901051846 69 184 0.0 0.0 0.34 0.37 0.37 93 1018.1
20260901051611 69 0 0.0 0.0 0.34 0.36 0.36 93 1017.8
20260901051357 69 184 0.0 0.0 0.33 0.35 0.35 93 1018.1
20260901050845 69 184 0.0 0.0 0.33 0.34 0.34 93 1018.2
20260901050357 69 184 0.0 0.0 0.31 0.32 0.32 93 1018.2
20260901050116 69 184 0.0 0.0 0.28 0.30 0.30 93 1017.7
20260901050055 69 0 0.0 0.0 0.28 0.29 0.29 93 1017.8
20260901045842 69 184 0.0 0.0 0.27 0.27 0.27 93 1018.2
20260901045353 69 184 0.0 0.0 0.24 0.24 0.24 93 1018.3
20260901044844 70 184 0.0 0.0 0.21 0.21 0.21 93 1018.3
20260901044616 69 184 0.0 0.0 0.19 0.19 0.19 93 1017.8
20260901044547 69 0 0.0 0.0 0.18 0.18 0.18 92 1018.0
20260901044355 70 184 0.0 0.0 0.17 0.17 0.17 93 1018.3
20260901043845 70 184 0.0 0.0 0.15 0.15 0.15 93 1018.4
20260901043355 70 184 0.0 0.0 0.11 0.11 0.11 92 1018.4
20260901043055 69 0 0.0 0.0 0.09 0.09 0.09 92 1018.1
20260901043003 69 184 0.0 0.0 0.09 0.09 0.09 92 1017.9
20260901042902 70 184 0.0 0.0 0.08 0.08 0.08 92 1018.4
20260901042351 70 184 0.0 0.0 0.06 0.06 0.06 92 1018.4
20260901041844 70 184 0.0 1.0 0.03 0.03 0.03 92 1018.4
20260901041615 69 184 0.0 1.0 0.02 0.02 0.02 92 1017.9
20260901041552 69 0 0.0 1.0 0.02 0.02 0.02 92 1018.1
20260901041355 70 184 0.0 1.0 0.02 0.02 0.02 92 1018.4
20260901040846 70 150 0.0 0.0 0.01 0.01 0.01 92 1018.4
20260901040356 70 150 0.0 0.0 0.01 0.01 0.01 92 1018.4
20260901040122 69 150 0.0 0.0 0.01 0.01 0.01 92 1017.9
20260901040059 69 0 0.0 0.0 0.00 0.00 0.00 91 1018.1
20260901035843 70 150 0.0 0.0 0.00 0.01 0.00 92 1018.4
20260901035354 70 150 0.0 0.0 0.00 0.01 0.00 92 1018.4
20260901034906 70 150 0.0 0.0 0.00 0.01 0.00 92 1018.4
20260901034614 69 150 0.0 0.0 0.00 0.01 0.00 92 1017.9
20260901034603 69 0 0.0 0.0 0.00 0.01 0.00 91 1018.1
20260901034337 70 150 0.0 0.0 0.00 0.01 0.00 92 1018.5
20260901033848 70 150 0.0 0.0 0.00 0.01 0.00 92 1018.5
20260901033340 70 150 0.0 0.0 0.00 0.01 0.00 92 1018.5
20260901033108 69 0 0.0 0.0 0.00 0.01 0.00 91 1018.2
20260901032847 70 150 0.0 0.0 0.00 0.01 0.00 92 1018.5
20260901032337 70 150 0.0 1.0 0.00 0.01 0.00 92 1018.6
20260901031847 70 150 0.0 1.0 0.00 0.01 0.00 91 1018.6
20260901031623 69 150 0.0 1.0 0.00 0.01 0.00 91 1018.2
20260901031548 69 0 0.0 0.0 0.00 0.01 0.00 91 1018.3
20260901031341 70 143 0.0 0.0 0.00 0.01 0.00 91 1018.6
20260901030852 70 143 0.0 0.0 0.00 0.01 0.00 91 1018.6
20260901030342 70 143 0.0 0.0 0.00 0.01 0.00 91 1018.6
20260901030055 69 0 0.0 0.0 0.00 0.01 0.00 91 1018.4
20260901025850 70 143 0.0 0.0 0.00 0.02 0.00 91 1018.7
20260901025359 70 143 0.0 0.0 0.00 0.02 0.00 91 1018.8
20260901024849 70 143 0.0 1.0 0.00 0.02 0.00 91 1018.9
20260901024614 70 143 0.0 1.0 0.00 0.02 0.00 91 1018.4
20260901024558 69 0 0.0 1.0 0.00 0.02 0.00 91 1018.6
20260901024340 70 143 0.0 1.0 0.00 0.02 0.00 91 1018.9
20260901023851 70 143 0.0 1.0 0.00 0.02 0.00 91 1019.0
20260901023342 70 143 0.0 1.0 0.00 0.02 0.00 91 1019.0
20260901023102 69 143 0.0 1.0 0.00 0.02 0.00 91 1018.5
20260901023056 70 0 0.0 1.0 0.00 0.02 0.00 91 1018.7
20260901022849 70 143 0.0 1.0 0.00 0.02 0.00 91 1019.0
20260901022340 70 143 0.0 0.0 0.00 0.02 0.00 91 1019.0
20260901021912 70 143 0.0 0.0 0.00 0.02 0.00 91 1019.0
20260901021632 70 143 0.0 1.0 0.00 0.02 0.00 91 1018.5
20260901021548 70 0 0.0 1.0 0.00 0.02 0.00 90 1018.7
20260901021339 70 143 0.0 1.0 0.00 0.02 0.00 91 1019.0
20260901020851 70 143 0.0 1.0 0.00 0.02 0.00 91 1019.0
20260901020342 70 143 0.0 1.0 0.00 0.02 0.00 91 1019.0
20260901020122 70 143 0.0 1.0 0.00 0.02 0.00 91 1018.5
20260901020051 70 0 0.0 1.0 0.00 0.02 0.00 90 1018.7
20260901015850 70 143 0.0 0.0 0.00 0.04 0.00 91 1019.0
20260901015338 70 143 0.0 1.0 0.00 0.04 0.00 91 1019.0
20260901014847 70 143 0.0 1.0 0.00 0.04 0.00 91 1019.1
20260901014614 70 143 0.0 1.0 0.00 0.04 0.00 91 1018.6
20260901014604 70 143 0.0 1.0 0.00 0.04 0.00 90 1018.8
20260901014357 70 155 0.0 1.0 0.00 0.04 0.00 91 1019.1
20260901013845 70 86 0.0 0.0 0.00 0.04 0.00 91 1019.1
20260901013356 70 86 0.0 1.0 0.00 0.04 0.00 91 1019.1
20260901013120 70 86 0.0 1.0 0.00 0.04 0.00 91 1018.6
20260901013050 70 0 0.0 1.0 0.00 0.04 0.00 90 1018.9
20260901012842 70 86 0.0 1.0 0.00 0.04 0.00 91 1019.1
20260901012351 70 86 0.0 1.0 0.00 0.04 0.00 91 1019.1
20260901011902 70 86 0.0 2.0 0.00 0.04 0.00 91 1019.1
20260901011613 70 86 0.0 2.0 0.00 0.04 0.00 90 1018.6
20260901011544 70 0 0.0 2.0 0.00 0.04 0.00 90 1018.9
20260901011352 70 86 0.0 2.0 0.00 0.04 0.00 90 1019.2
20260901010843 70 212 0.0 1.0 0.00 0.04 0.00 90 1019.2
20260901010356 71 212 0.0 1.0 0.00 0.04 0.00 90 1019.1
20260901010101 70 212 0.0 1.0 0.00 0.04 0.00 90 1018.6
20260901010046 70 0 0.0 1.0 0.00 0.04 0.00 90 1018.8
20260901005843 71 212 0.0 1.0 0.00 0.09 0.00 90 1019.1
20260901005353 71 213 0.0 0.0 0.00 0.09 0.00 91 1019.0
20260901004903 71 213 0.0 0.0 0.00 0.09 0.00 91 1019.0
20260901004610 70 213 0.0 0.0 0.00 0.09 0.00 90 1018.5
20260901004600 70 0 0.0 1.0 0.00 0.09 0.00 90 1018.8
20260901004413 71 213 0.0 1.0 0.00 0.09 0.00 90 1019.0
20260901003843 71 213 0.0 2.0 0.00 0.09 0.00 90 1019.0
20260901003355 71 213 0.0 2.0 0.00 0.09 0.00 90 1019.0
20260901003120 70 162 0.0 0.0 0.00 0.09 0.00 90 1018.5
20260901003054 70 0 0.0 0.0 0.00 0.09 0.00 90 1018.7
20260901002841 71 162 0.0 0.0 0.00 0.09 0.00 90 1018.9
20260901002352 71 162 0.0 1.0 0.00 0.09 0.00 90 1018.9
20260901001842 71 162 0.0 1.0 0.00 0.09 0.00 90 1018.9
20260901001610 70 162 0.0 1.0 0.00 0.09 0.00 90 1018.3
20260901001554 70 0 0.0 1.0 0.00 0.09 0.00 90 1018.6
20260901001413 71 162 0.0 0.0 0.00 0.09 0.00 90 1018.8
20260901000844 71 162 0.0 0.0 0.00 0.09 0.00 90 1018.8
20260901000355 71 162 0.0 0.0 0.00 0.09 0.00 90 1018.8
20260901000123 71 162 0.0 0.0 0.00 0.09 0.00 90 1018.3
20260901000052 71 0 0.0 0.0 0.00 0.09 0.00 89 1018.6
20260831235842 71 162 0.0 0.0 0.00 0.10 0.00 90 1018.8
20260831235337 71 162 0.0 0.0 0.00 0.10 0.00 90 1018.8
20260831234847 71 162 0.0 1.0 0.00 0.10 0.00 90 1018.8
20260831234610 71 162 0.0 1.0 0.00 0.10 0.00 90 1018.4
20260831234554 71 0 0.0 1.0 0.00 0.10 0.00 89 1018.6
20260831234337 71 162 0.0 1.0 0.00 0.10 0.00 90 1018.9
20260831233845 71 162 0.0 0.0 0.00 0.10 0.00 89 1019.0
20260831233356 72 162 0.0 1.0 0.00 0.10 0.00 89 1019.0
20260831233118 71 162 0.0 1.0 0.00 0.10 0.00 89 1018.5
20260831233051 71 0 0.0 1.0 0.00 0.10 0.00 89 1018.8
20260831232843 72 162 0.0 1.0 0.00 0.10 0.00 89 1018.9
20260831232335 72 162 0.0 1.0 0.00 0.10 0.00 89 1019.0
20260831231846 72 162 0.0 1.0 0.00 0.10 0.00 89 1019.1
20260831231610 71 140 0.0 0.0 0.00 0.10 0.00 89 1018.6
20260831231548 71 0 0.0 0.0 0.00 0.10 0.00 88 1019.0
20260831231336 72 140 0.0 0.0 0.00 0.10 0.00 89 1019.1
20260831230845 72 140 0.0 0.0 0.00 0.10 0.00 89 1019.1
20260831230418 72 140 0.0 1.0 0.00 0.10 0.00 89 1019.2
20260831230101 71 140 0.0 1.0 0.00 0.10 0.00 89 1018.7
20260831230045 71 0 0.0 1.0 0.00 0.10 0.00 88 1019.1
20260831225842 72 140 0.0 1.0 0.00 0.10 0.00 89 1019.2
20260831225353 72 140 0.0 1.0 0.00 0.10 0.00 89 1019.2
20260831224843 72 140 0.0 1.0 0.00 0.10 0.00 89 1019.3
20260831224614 71 140 0.0 0.0 0.00 0.10 0.00 89 1018.7
20260831224555 71 0 0.0 1.0 0.00 0.10 0.00 88 1019.0
20260831224354 72 140 0.0 1.0 0.00 0.10 0.00 89 1019.2
20260831223843 72 140 0.0 2.0 0.00 0.10 0.00 89 1019.2
20260831223356 72 131 1.0 2.0 0.00 0.10 0.00 89 1019.2
20260831223101 72 168 0.0 2.0 0.00 0.10 0.00 89 1018.7
20260831223048 72 171 0.0 1.0 0.00 0.10 0.00 88 1018.9
20260831222844 72 133 0.0 1.0 0.00 0.10 0.00 88 1019.2
20260831222353 72 133 0.0 2.0 0.00 0.10 0.00 88 1019.3
20260831221844 72 198 0.0 2.0 0.00 0.10 0.00 88 1019.4
20260831221611 72 211 0.0 2.0 0.00 0.10 0.00 88 1018.9
20260831221554 72 0 0.0 2.0 0.00 0.10 0.00 88 1019.2
20260831221334 72 219 0.0 2.0 0.00 0.10 0.00 88 1019.3
20260831220845 72 124 0.0 1.0 0.00 0.10 0.00 88 1019.4
20260831220356 72 171 0.0 3.0 0.00 0.10 0.00 87 1019.3
20260831220053 72 0 0.0 3.0 0.00 0.10 0.00 87 1019.2
20260831215905 72 225 1.0 3.0 0.00 0.10 0.00 87 1019.4
20260831215335 73 122 1.0 2.0 0.00 0.10 0.00 88 1019.3
20260831214844 73 141 0.0 1.0 0.00 0.10 0.00 87 1019.2
20260831214613 72 141 0.0 1.0 0.00 0.10 0.00 87 1018.8
20260831214548 72 0 0.0 1.0 0.00 0.10 0.00 87 1019.2
20260831214335 73 141 0.0 1.0 0.00 0.10 0.00 87 1019.3
20260831213907 73 167 0.0 1.0 0.00 0.10 0.00 87 1019.4
20260831213355 73 126 0.0 1.0 0.00 0.10 0.00 87 1019.3
20260831213102 73 126 0.0 1.0 0.00 0.10 0.00 86 1018.7
20260831213043 73 0 0.0 1.0 0.00 0.10 0.00 85 1019.0
20260831212843 73 126 0.0 1.0 0.00 0.10 0.00 86 1019.3
20260831212414 73 118 0.0 1.0 0.00 0.10 0.00 86 1019.1
20260831211844 74 219 0.0 2.0 0.00 0.10 0.00 86 1019.2
20260831211612 73 116 0.0 2.0 0.00 0.10 0.00 86 1018.7
20260831211555 73 0 0.0 2.0 0.00 0.10 0.00 85 1019.1
20260831211334 74 109 1.0 2.0 0.00 0.10 0.00 86 1019.2
20260831210845 74 152 0.0 1.0 0.00 0.10 0.00 85 1019.2
20260831210340 74 171 0.0 1.0 0.00 0.10 0.00 84 1019.3
20260831210050 74 0 0.0 2.0 0.00 0.10 0.00 84 1019.1
20260831210002 74 132 0.0 1.0 0.00 0.10 0.00 84 1018.8
20260831205902 74 132 0.0 2.0 0.00 0.10 0.00 84 1019.2
20260831205335 75 215 0.0 2.0 0.00 0.10 0.00 84 1019.3
20260831204847 75 116 0.0 2.0 0.00 0.10 0.00 83 1019.3
20260831204610 74 116 0.0 2.0 0.00 0.10 0.00 83 1018.7
20260831204546 75 0 0.0 2.0 0.00 0.10 0.00 83 1019.1
20260831204334 75 109 1.0 2.0 0.00 0.10 0.00 83 1019.2
20260831203843 75 143 0.0 3.0 0.00 0.10 0.00 82 1019.2
20260831203414 75 159 1.0 4.0 0.00 0.10 0.00 82 1019.0
20260831203112 75 103 1.0 4.0 0.00 0.10 0.00 82 1018.5
20260831203043 75 135 0.0 4.0 0.00 0.10 0.00 82 1018.8
20260831202839 75 163 1.0 4.0 0.00 0.10 0.00 83 1019.0
20260831202347 75 150 0.0 1.0 0.00 0.10 0.00 84 1019.1
20260831201837 75 192 0.0 2.0 0.00 0.10 0.00 83 1019.3
20260831201601 75 150 0.0 2.0 0.00 0.10 0.00 84 1018.8
20260831201554 75 0 0.0 2.0 0.00 0.10 0.00 83 1019.0
20260831201347 75 143 0.0 2.0 0.00 0.10 0.00 83 1019.2
20260831200837 76 131 0.0 3.0 0.00 0.10 0.00 84 1019.4
20260831200348 76 73 1.0 3.0 0.00 0.10 0.00 82 1019.4
20260831200108 75 91 0.0 3.0 0.00 0.10 0.00 82 1019.0
20260831200058 75 0 1.0 3.0 0.00 0.10 0.00 82 1019.3
20260831195855 76 164 1.0 3.0 0.00 0.10 0.00 82 1019.5
20260831195344 76 156 0.0 3.0 0.00 0.10 0.00 82 1019.5
20260831194835 76 165 1.0 3.0 0.00 0.10 0.00 80 1019.6
20260831194639 75 174 0.0 3.0 0.00 0.10 0.00 80 1019.1
20260831194615 75 0 0.0 3.0 0.00 0.10 0.00 79 1019.4
20260831194405 76 174 1.0 3.0 0.00 0.10 0.00 80 1019.6
20260831193836 76 106 0.0 3.0 0.00 0.10 0.00 79 1019.8
20260831193347 76 107 0.0 3.0 0.00 0.10 0.00 78 1019.8
20260831193114 76 106 0.0 3.0 0.00 0.10 0.00 80 1019.2
20260831193054 76 106 0.0 3.0 0.00 0.10 0.00 78 1019.5
20260831192834 77 96 0.0 2.0 0.00 0.10 0.00 79 1019.7
20260831192344 77 157 0.0 3.0 0.00 0.10 0.00 77 1019.7
20260831191835 77 225 1.0 3.0 0.00 0.10 0.00 76 1019.8
20260831191603 77 168 0.0 1.0 0.00 0.10 0.00 76 1019.4
20260831191549 77 0 0.0 1.0 0.00 0.10 0.00 76 1019.6
20260831191406 77 126 0.0 1.0 0.00 0.10 0.00 76 1019.9
20260831190836 77 128 1.0 2.0 0.00 0.10 0.00 75 1019.9
20260831190348 77 138 1.0 2.0 0.00 0.10 0.00 79 1019.9
20260831190130 77 147 0.0 2.0 0.00 0.10 0.00 72 1019.5
20260831190107 77 117 0.0 2.0 0.00 0.10 0.00 71 1019.8
20260831185836 78 142 1.0 2.0 0.00 0.10 0.00 77 1020.1
20260831185346 79 360 0.0 3.0 0.00 0.10 0.00 71 1020.2
20260831184835 78 125 1.0 3.0 0.00 0.10 0.00 78 1020.1
20260831184609 78 166 0.0 3.0 0.00 0.10 0.00 73 1019.6
20260831184602 78 166 1.0 3.0 0.00 0.10 0.00 73 1020.0
20260831184346 79 234 1.0 3.0 0.00 0.10 0.00 72 1020.3
20260831183835 79 350 1.0 2.0 0.00 0.10 0.00 73 1020.4
20260831183346 78 167 1.0 3.0 0.00 0.10 0.00 76 1020.3
20260831183111 77 167 1.0 3.0 0.00 0.10 0.00 75 1019.7
20260831183051 77 223 0.0 4.0 0.00 0.10 0.00 74 1019.9
20260831182834 77 169 0.0 4.0 0.00 0.10 0.00 76 1020.1
20260831182345 78 142 1.0 4.0 0.00 0.10 0.00 72 1020.2
20260831181853 78 190 1.0 6.0 0.00 0.10 0.00 76 1020.3
20260831181604 78 123 0.0 6.0 0.00 0.10 0.00 73 1019.7
20260831181550 78 123 1.0 6.0 0.00 0.10 0.00 70 1020.0
20260831181342 78 99 1.0 6.0 0.00 0.10 0.00 77 1020.3
20260831180357 79 157 0.0 1.0 0.00 0.10 0.00 69 1020.5
20260831180116 79 45 0.0 2.0 0.00 0.10 0.00 68 1020.1
20260831180054 80 158 0.0 3.0 0.00 0.10 0.00 69 1020.3
20260831175843 80 159 0.0 3.0 0.00 0.10 0.00 76 1020.6
20260831175353 78 60 1.0 3.0 0.00 0.10 0.00 77 1020.6
20260831174843 77 130 1.0 3.0 0.00 0.10 0.00 75 1020.6
20260831174611 77 190 0.0 3.0 0.00 0.10 0.00 71 1020.3
20260831174608 77 0 0.0 4.0 0.00 0.10 0.00 70 1020.5
20260831174353 78 142 1.0 4.0 0.00 0.10 0.00 76 1020.8
20260831173843 78 159 1.0 4.0 0.00 0.10 0.00 81 1020.9
20260831173416 77 163 1.0 3.0 0.00 0.10 0.00 72 1020.9
20260831173122 77 309 0.0 3.0 0.00 0.10 0.00 71 1020.4
20260831173046 77 281 0.0 4.0 0.00 0.10 0.00 70 1020.5
20260831172842 77 113 0.0 4.0 0.00 0.10 0.00 75 1020.9
20260831172351 77 107 1.0 4.0 0.00 0.10 0.00 74 1020.8
20260831171841 77 128 1.0 3.0 0.00 0.10 0.00 73 1020.7
20260831171610 77 167 0.0 3.0 0.00 0.10 0.00 78 1020.1
20260831171543 77 180 1.0 4.0 0.00 0.10 0.00 75 1020.3
20260831171413 78 77 2.0 3.0 0.00 0.10 0.00 76 1020.6
20260831170902 78 105 1.0 6.0 0.00 0.10 0.00 72 1020.7
20260831170414 79 235 2.0 6.0 0.00 0.10 0.00 71 1020.6
20260831170117 78 169 2.0 4.0 0.00 0.10 0.00 76 1020.0
20260831170058 78 145 1.0 5.0 0.00 0.10 0.00 73 1020.1
20260831165840 78 240 2.0 4.0 0.00 0.10 0.00 74 1020.6
20260831165349 78 148 1.0 4.0 0.00 0.10 0.00 75 1020.8
20260831164838 77 132 2.0 4.0 0.00 0.10 0.00 71 1021.0
20260831164610 76 167 1.0 4.0 0.00 0.10 0.00 77 1020.4
20260831164557 76 156 1.0 4.0 0.00 0.10 0.00 77 1020.5
20260831164410 77 192 2.0 4.0 0.00 0.10 0.00 74 1020.8
20260831163840 77 147 2.0 4.0 0.00 0.10 0.00 77 1020.9
20260831163352 79 5 0.0 2.0 0.00 0.10 0.00 75 1021.0
20260831163118 77 285 0.0 2.0 0.00 0.10 0.00 76 1020.5
20260831163055 77 323 0.0 2.0 0.00 0.10 0.00 76 1020.5
20260831162838 77 204 0.0 2.0 0.00 0.10 0.00 75 1021.1
20260831162349 75 242 0.0 6.0 0.00 0.10 0.00 78 1021.0
20260831161838 75 173 1.0 6.0 0.00 0.10 0.00 79 1021.0
20260831161607 75 167 1.0 5.0 0.00 0.10 0.00 76 1020.5
20260831161551 75 183 1.0 6.0 0.00 0.10 0.00 76 1020.5
20260831161410 75 166 1.0 5.0 0.00 0.10 0.00 79 1021.1
20260831160840 76 91 2.0 7.0 0.00 0.10 0.00 77 1021.0
20260831160350 76 194 1.0 7.0 0.00 0.10 0.00 72 1021.1
20260831160117 76 168 2.0 7.0 0.00 0.10 0.00 79 1020.7
20260831160058 76 198 1.0 4.0 0.00 0.10 0.00 77 1020.8
20260831155836 76 152 1.0 4.0 0.00 0.10 0.00 77 1021.2
20260831155348 75 134 2.0 4.0 0.00 0.10 0.00 78 1021.1
20260831154839 74 204 0.0 1.0 0.00 0.10 0.00 83 1021.2
20260831154649 73 204 0.0 3.0 0.00 0.10 0.00 83 1020.8
20260831154619 73 0 0.0 3.0 0.00 0.10 0.00 83 1021.0
20260831154349 73 204 0.0 3.0 0.00 0.10 0.00 81 1021.3
20260831153838 74 195 1.0 2.0 0.00 0.10 0.00 82 1021.2
20260831153348 74 134 1.0 3.0 0.00 0.10 0.00 83 1021.1
20260831153113 73 165 0.0 3.0 0.00 0.10 0.00 85 1020.5
20260831153102 73 0 0.0 4.0 0.00 0.10 0.00 82 1020.7
20260831152839 74 199 1.0 3.0 0.00 0.10 0.00 82 1021.1
20260831152349 74 211 1.0 5.0 0.00 0.10 0.00 85 1021.2
20260831151837 74 264 1.0 5.0 0.00 0.10 0.00 85 1021.3
20260831151622 73 150 1.0 5.0 0.00 0.10 0.00 84 1020.8
20260831151552 73 180 1.0 6.0 0.00 0.10 0.00 83 1020.8
20260831151346 74 105 2.0 6.0 0.00 0.10 0.00 84 1021.3
20260831150836 74 182 1.0 6.0 0.00 0.10 0.00 83 1021.2
20260831150347 74 107 2.0 5.0 0.00 0.10 0.00 84 1021.1
20260831150109 74 48 1.0 5.0 0.00 0.10 0.00 84 1020.8
20260831150048 74 148 1.0 5.0 0.00 0.10 0.00 83 1020.8
20260831145855 74 247 1.0 5.0 0.00 0.10 0.00 81 1021.3
20260831145345 74 137 2.0 5.0 0.00 0.10 0.00 82 1021.3
20260831144853 74 192 2.0 3.0 0.00 0.10 0.00 83 1021.4
20260831144617 73 182 0.0 3.0 0.00 0.10 0.00 85 1020.9
20260831144557 73 0 0.0 4.0 0.00 0.10 0.00 85 1021.0
20260831144338 73 226 0.0 2.0 0.00 0.10 0.00 86 1021.4
20260831143847 73 226 0.0 2.0 0.00 0.10 0.00 87 1021.3
20260831143357 73 194 0.0 2.0 0.00 0.10 0.00 86 1021.3
20260831143114 72 194 0.0 2.0 0.00 0.10 0.00 87 1020.8
20260831143053 72 135 0.0 2.0 0.00 0.10 0.00 86 1021.0
20260831142845 73 144 0.0 1.0 0.00 0.10 0.00 86 1021.3
20260831142334 73 113 0.0 2.0 0.00 0.10 0.00 88 1021.3
20260831141846 73 286 0.0 4.0 0.00 0.10 0.00 87 1021.2
20260831141617 72 298 0.0 4.0 0.00 0.10 0.00 87 1020.7
20260831141555 72 0 0.0 4.0 0.00 0.10 0.00 87 1020.8
20260831141336 72 5 1.0 4.0 0.00 0.10 0.00 88 1021.1
20260831140846 72 206 0.0 5.0 0.00 0.10 0.00 88 1021.1
20260831140419 72 349 3.0 5.0 0.00 0.10 0.00 86 1021.1
20260831140055 71 0 0.0 6.0 0.00 0.10 0.00 88 1020.9
20260831135845 71 38 1.0 6.0 0.00 0.10 0.00 88 1021.3
20260831135335 71 350 1.0 3.0 0.00 0.10 0.00 89 1021.0
20260831134845 71 168 1.0 3.0 0.00 0.10 0.00 89 1021.0
20260831134616 70 9 0.0 3.0 0.00 0.10 0.00 89 1020.6
20260831134603 70 0 1.0 3.0 0.00 0.10 0.00 88 1020.8
20260831134337 70 355 2.0 3.0 0.00 0.10 0.00 90 1021.0
20260831133847 70 350 0.0 3.0 0.00 0.10 0.00 90 1021.0
20260831133359 70 33 1.0 3.0 0.00 0.10 0.00 90 1021.1
20260831133109 69 5 1.0 5.0 0.00 0.10 0.00 90 1020.5
20260831133103 69 340 1.0 5.0 0.00 0.10 0.00 90 1020.7
20260831132844 70 344 0.0 5.0 0.00 0.10 0.00 91 1021.1
20260831132334 69 331 1.0 5.0 0.00 0.10 0.00 91 1021.1
20260831131846 69 360 1.0 5.0 0.00 0.10 0.00 92 1021.0
20260831131624 68 17 1.0 5.0 0.00 0.10 0.00 92 1020.5
20260831131557 68 9 2.0 5.0 0.00 0.10 0.00 91 1020.7
20260831131337 68 329 3.0 5.0 0.00 0.10 0.00 92 1021.1
20260831130848 68 346 3.0 4.0 0.00 0.10 0.00 93 1021.1
20260831130343 68 360 1.0 4.0 0.00 0.10 0.00 93 1021.0
20260831130105 67 37 0.0 4.0 0.00 0.10 0.00 93 1020.5
20260831130047 67 0 0.0 4.0 0.00 0.10 0.00 93 1020.7
20260831125850 68 323 1.0 4.0 0.00 0.10 0.00 94 1020.9
20260831125400 67 19 1.0 3.0 0.00 0.10 0.00 94 1021.0
20260831124905 67 40 1.0 4.0 0.00 0.10 0.00 94 1021.1
20260831124617 66 5 0.0 4.0 0.00 0.10 0.00 94 1020.5
20260831124555 66 0 0.0 4.0 0.00 0.10 0.00 93 1020.7
20260831124338 67 5 2.0 4.0 0.00 0.10 0.00 94 1021.0
20260831123904 67 23 2.0 3.0 0.00 0.10 0.00 94 1021.1
20260831123339 66 32 0.0 2.0 0.00 0.10 0.00 94 1021.2
20260831123121 66 32 0.0 2.0 0.00 0.10 0.00 94 1020.6
20260831123054 66 0 0.0 3.0 0.00 0.10 0.00 93 1020.8
20260831122846 66 345 1.0 3.0 0.00 0.10 0.00 94 1021.1
20260831122338 66 360 0.0 4.0 0.00 0.10 0.00 94 1021.1
20260831121848 66 360 2.0 4.0 0.00 0.10 0.00 94 1021.0
20260831121612 66 5 1.0 4.0 0.00 0.10 0.00 94 1020.6
20260831121546 66 23 1.0 4.0 0.00 0.10 0.00 94 1020.7
20260831121338 66 302 1.0 4.0 0.00 0.10 0.00 94 1021.1
20260831120849 66 342 2.0 3.0 0.00 0.10 0.00 94 1020.8
20260831120341 66 336 1.0 3.0 0.00 0.10 0.00 94 1020.9
20260831120122 65 335 0.0 3.0 0.00 0.10 0.00 94 1020.4
20260831120046 65 0 1.0 3.0 0.00 0.10 0.00 94 1020.4
20260831115846 66 24 2.0 3.0 0.00 0.10 0.00 94 1020.9
20260831115357 66 15 1.0 3.0 0.00 0.10 0.00 94 1021.0
20260831114845 66 322 1.0 3.0 0.00 0.10 0.00 94 1021.0
20260831114609 65 14 0.0 3.0 0.00 0.10 0.00 94 1020.3
20260831114552 65 0 0.0 3.0 0.00 0.10 0.00 94 1020.3
20260831114355 65 355 0.0 3.0 0.00 0.10 0.00 94 1020.7
20260831113846 65 302 1.0 2.0 0.00 0.10 0.00 94 1020.7
20260831113357 65 350 1.0 4.0 0.00 0.10 0.00 94 1020.6
20260831113116 65 360 1.0 4.0 0.00 0.10 0.00 94 1020.2
20260831113102 65 360 1.0 4.0 0.00 0.10 0.00 94 1020.2
20260831112845 65 360 2.0 4.0 0.00 0.10 0.00 94 1020.7
20260831112335 65 15 0.0 1.0 0.00 0.10 0.00 94 1020.7
20260831111845 65 15 0.0 1.0 0.00 0.10 0.00 94 1020.7
20260831111614 65 314 0.0 2.0 0.00 0.10 0.00 94 1020.3
20260831111545 65 0 0.0 3.0 0.00 0.10 0.00 93 1020.3
20260831111355 65 314 0.0 2.0 0.00 0.10 0.00 94 1020.7
20260831110846 65 348 1.0 3.0 0.00 0.10 0.00 94 1020.6
20260831110357 65 342 0.0 1.0 0.00 0.10 0.00 94 1020.5
20260831110123 65 28 0.0 0.0 0.00 0.10 0.00 94 1019.9
20260831110045 65 0 0.0 0.0 0.00 0.10 0.00 93 1020.0
20260831105844 65 28 0.0 0.0 0.00 0.10 0.00 94 1020.4
20260831105353 65 28 0.0 0.0 0.00 0.10 0.00 94 1020.4
20260831104845 65 16 0.0 1.0 0.00 0.10 0.00 94 1020.3
20260831104616 65 16 0.0 1.0 0.00 0.10 0.00 94 1019.8
20260831104556 65 0 0.0 1.0 0.00 0.10 0.00 93 1019.8
20260831104337 66 16 0.0 0.0 0.00 0.10 0.00 94 1020.2
20260831103848 66 305 0.0 0.0 0.00 0.10 0.00 94 1020.2
20260831103338 66 333 0.0 0.0 0.00 0.10 0.00 94 1020.2
20260831103103 65 355 0.0 0.0 0.00 0.10 0.00 94 1019.7
20260831103044 65 0 0.0 0.0 0.00 0.10 0.00 93 1019.7
20260831102845 66 355 0.0 0.0 0.00 0.10 0.00 94 1020.2
20260831102336 66 322 0.0 3.0 0.00 0.10 0.00 94 1020.1
20260831101845 66 360 1.0 3.0 0.00 0.10 0.00 94 1020.1
20260831101618 65 313 0.0 2.0 0.00 0.10 0.00 94 1019.5
20260831101547 65 0 0.0 2.0 0.00 0.10 0.00 93 1019.6
20260831101340 66 313 0.0 2.0 0.00 0.10 0.00 94 1019.8
20260831100850 66 331 0.0 1.0 0.00 0.10 0.00 94 1019.9
20260831100342 66 331 0.0 1.0 0.00 0.10 0.00 94 1019.8
20260831100047 66 0 0.0 1.0 0.00 0.10 0.00 93 1019.5
20260831095849 66 331 0.0 1.0 0.00 0.10 0.00 94 1019.9
20260831095337 66 331 0.0 0.0 0.00 0.10 0.00 94 1019.8